User: anonymous   Login
Location: Unspecified
(0.0000°N, 0.0000°E)
Time: 01:29:01
(UTC+02:00)
Language:

YAOGAN 1 - Orbit

View from above orbital plane
View from above orbital plane
View from above satellite
View from above satellite

Ground track
Ground track

The orbit data is extracted from the following two-line orbital elements,

1 29092U 06015A   17292.96749533 +.00000102 +00000-0 +19312-4 0  9994
2 29092 098.0012 304.4544 0001440 090.6307 269.5071 14.82848365620751
Epoch (UTC): 19 October 2017 23:13:11
Eccentricity: 0.0001440
inclination: 98.0012°
perigee height: 619 km
apogee height: 621 km
right ascension of ascending node: 304.4544°
argument of perigee: 90.6307°
revolutions per day: 14.82848365
mean anomaly at epoch: 269.5071°
orbit number at epoch: 62075

The dashed part of the orbit path shows where the satellite is in the earth's shadow,  

DLR